Temp
3 3 2 2 2 1 1 0 -1 -1 -2 -2 -2 -3 -2 -2 -3 -3 -3 -2 -2 -3 -3 -3 -2 -2 -2 -1 -1 -0 1 2 3 4 5 5 6 6 6 7 8 7 8 8 9 9 9
3 3 3 2 2 1 1 0 -0 -1 -1 -3 -3 -3 -3 -3 -3 -3 -3 -3 -3 -3 -3 -3 -3 -2 -2 -2 -1 0 1 2 3 3 4 5 5 5 6 6 7 7 7 8 9 9 9
3 3 3 3 2 2 1 0 -0 -1 -1 -2 -2 -3 -3 -4 -3 -3 -3 -3 -3 -3 -3 -3 -3 -2 -3 -2 -1 1 1 2 2 3 4 4 5 4 5 6 6 7 7 8 8 9 9
3 3 3 3 3 2 2 1 0 -0 -1 -1 -2 -2 -3 -3 -4 -4 -3 -4 -3 -5 -5 -4 -2 -2 -3 -2 1 0 1 2 2 3 4 4 5 4 5 6 6 7 7 8 9 9 9
3 3 3 3 3 3 2 2 1 0 -0 -1 -1 -1 -2 -2 -3 -3 -4 -4 -4 -5 -4 -3 -2 -3 -2 -1 -1 0 1 2 3 3 4 3 4 5 5 6 6 7 8 8 8 9 9
3 3 3 3 3 3 2 2 2 1 1 0 -1 -1 -1 -2 -2 -3 -3 -3 -3 -3 -3 -3 -3 -3 -2 -1 -0 1 2 2 2 3 3 3 4 5 5 6 6 7 8 9 8 9 9
3 3 3 3 3 3 3 2 2 2 1 1 0 -0 0 -1 -1 -2 -2 -2 -2 -2 -2 -2 -3 -2 -1 -0 0 1 1 2 2 2 2 3 4 4 6 6 7 8 9 9 8 9 9
3 3 3 3 3 3 2 3 2 2 2 1 1 0 1 0 -0 -1 -1 -1 -2 -2 -2 -2 -2 -1 -1 0 0 1 1 1 2 2 2 3 4 4 5 6 7 8 9 8 8 8 8
3 3 3 3 3 3 3 2 3 2 2 2 2 1 1 1 0 0 -0 -1 -1 -1 -1 -1 -1 -1 -0 1 1 1 1 2 2 2 3 3 4 5 5 6 7 8 8 8 8 8 8
3 3 3 3 3 3 3 2 2 2 3 2 2 2 1 1 1 1 1 0 0 0 0 -0 0 0 1 1 1 1 2 2 2 2 3 4 5 5 5 6 7 7 7 7 7 7 7
3 3 3 3 3 3 3 3 2 2 2 3 3 3 2 2 2 2 1 1 1 1 0 1 1 1 1 2 2 2 2 3 3 3 4 4 5 5 5 6 6 7 7 7 7 7 7
4 3 3 3 3 3 3 3 3 3 2 2 3 3 3 3 3 3 2 2 2 2 -1 1 1 2 2 2 3 3 3 4 4 4 4 5 5 5 6 6 6 6 7 6 6 6 2
4 3 4 4 3 3 3 3 3 3 3 3 3 3 3 3 3 3 3 3 2 1 1 2 2 2 2 3 3 3 4 4 4 4 4 4 4 5 5 6 6 6 6 5 1 1 -0
3 3 3 4 4 3 3 3 3 3 3 3 3 3 3 4 4 3 4 3 3 1 1 2 2 2 3 3 3 4 4 4 4 5 5 5 4 5 5 5 6 6 5 4 2 -0 1
4 4 3 3 4 4 4 3 3 3 3 3 3 3 4 4 4 4 4 4 1 1 2 2 2 3 3 3 4 4 3 4 4 5 4 4 4 4 4 5 5 4 4 4 4 4 3
4 4 4 3 4 4 4 4 3 3 3 3 4 4 4 4 4 4 4 4 3 2 2 2 1 3 3 3 3 3 3 4 4 4 4 4 4 4 4 4 4 4 3 3 3 1 3
4 4 4 4 4 4 4 4 4 4 3 3 3 4 4 4 4 4 4 3 3 3 3 3 3 3 2 3 2 3 3 4 4 4 4 4 4 3 3 4 4 3 3 3 3 3 1
3 4 4 4 4 4 4 4 4 4 4 3 4 3 4 4 4 4 4 3 3 3 4 4 4 4 4 4 4 4 4 4 4 4 4 4 3 3 3 3 3 3 2 2 3 2 3
3 3 3 3 4 4 4 4 4 4 4 4 4 3 3 4 4 4 3 3 3 3 4 4 4 4 4 4 4 4 4 4 4 4 4 4 3 2 2 2 3 3 3 3 1 2 2
3 3 3 3 3 4 4 4 4 4 4 4 4 3 3 3 3 3 3 3 3 3 3 3 3 3 3 3 3 3 3 3 3 3 3 3 3 3 3 3 3 3 4 3 2 1 2
3 3 3 3 3 3 3 4 4 4 3 4 4 4 3 3 3 3 3 3 3 3 3 3 3 3 3 3 3 3 3 3 3 3 3 2 2 3 3 2 2 2 2 2 2 3 1
3 3 3 3 3 3 3 3 3 3 3 3 3 3 3 3 3 3 2 2 2 2 2 2 2 2 3 2 2 2 2 2 3 2 2 2 2 2 3 2 2 1 2 1 1 2 0
3 3 3 2 2 3 3 3 3 3 3 3 3 2 2 3 3 3 2 2 2 2 2 2 2 2 2 2 2 2 2 2 1 1 1 0 0 -1 -0 0 -0 -0 3 3 2 1 0
3 3 3 2 2 2 2 2 3 3 3 3 3 2 2 2 2 2 2 2 2 2 2 1 1 1 1 1 1 1 1 1 1 1 -0 -1 -1 -2 -1 -1 -3 1 1 1 1 1 1
2 2 2 2 2 2 1 2 2 2 2 2 2 2 2 1 2 1 1 1 2 2 2 2 2 1 1 1 0 0 1 1 1 1 0 -1 -2 -3 -2 -2 0 1 1 2 1 -0 -0
2 1 2 2 1 1 1 1 1 1 1 1 2 2 2 2 1 1 1 1 0 0 1 1 1 0 0 0 -0 -1 -0 1 0 1 1 -0 -2 -3 -3 -3 -2 -0 0 0 -0 -1 -1
1 1 1 1 1 1 0 0 1 1 1 1 1 1 1 1 2 1 0 0 1 -0 -2 -1 -1 -1 -1 -1 -2 -2 -1 -0 -1 -1 -0 -0 -1 -2 -3 -3 -2 -2 -1 -1 -3 -2 -2
-0 -0 -0 -0 -0 -0 -0 -1 -0 -0 0 0 1 0 1 1 1 1 0 -0 -0 -1 -1 -1 -1 -2 -2 -2 -3 -3 -3 -2 -2 -2 -1 -2 -1 -3 -4 -4 -3 -3 -3 -3 -2 -3 -4
-1 -1 -1 -1 -1 -1 -1 -1 -1 -1 -0 -0 -0 -0 -1 -1 -1 -1 -1 -1 -0 -1 -1 -1 -2 -2 -2 -2 -3 -3 -3 -4 -3 -3 -3 -3 -3 -2 -3 -3 -3 -3 -4 -4 -5 -5 -5
Height
3112 3108 3104 3100 3096 3091 3085 3080 3074 3068 3062 3053 3048 3044 3042 3041 3042 3042 3042 3042 3042 3043 3045 3048 3051 3055 3060 3067 3070 3073 3077 3082 3089 3096 3103 3111 3117 3123 3127 3132 3135 3138 3141 3145 3148 3150 3152
3114 3109 3105 3101 3097 3093 3088 3082 3077 3071 3067 3060 3054 3050 3047 3047 3046 3046 3045 3043 3043 3044 3042 3047 3051 3055 3060 3067 3067 3073 3077 3082 3089 3096 3102 3109 3116 3123 3127 3131 3134 3136 3139 3144 3147 3148 3150
3115 3111 3106 3102 3098 3094 3090 3085 3079 3075 3071 3065 3061 3057 3053 3052 3051 3049 3048 3047 3044 3043 3043 3047 3053 3056 3060 3066 3067 3072 3077 3082 3088 3096 3103 3109 3112 3119 3124 3127 3130 3133 3139 3142 3144 3146 3148
3117 3113 3108 3104 3100 3095 3092 3087 3082 3078 3074 3069 3066 3064 3060 3058 3055 3054 3052 3050 3048 3046 3043 3047 3052 3057 3061 3065 3068 3072 3078 3084 3089 3095 3100 3108 3113 3117 3120 3126 3129 3134 3137 3140 3142 3144 3145
3120 3115 3111 3106 3102 3097 3094 3090 3085 3081 3078 3074 3069 3067 3065 3062 3060 3059 3058 3055 3054 3055 3053 3054 3058 3062 3066 3066 3069 3073 3080 3086 3091 3097 3104 3109 3114 3118 3121 3125 3129 3131 3134 3137 3140 3141 3143
3122 3118 3113 3109 3105 3100 3096 3092 3089 3085 3081 3078 3074 3070 3068 3066 3064 3063 3062 3061 3061 3061 3062 3061 3063 3064 3067 3070 3072 3077 3082 3088 3093 3098 3105 3110 3115 3117 3120 3123 3124 3127 3132 3134 3136 3140 3141
3124 3120 3116 3111 3107 3103 3099 3095 3092 3089 3085 3081 3079 3075 3073 3071 3069 3067 3066 3065 3068 3067 3063 3064 3065 3065 3068 3072 3076 3081 3084 3091 3096 3102 3106 3110 3114 3115 3121 3124 3125 3128 3132 3134 3135 3137 3138
3126 3122 3118 3113 3109 3105 3101 3097 3094 3091 3088 3085 3083 3080 3076 3075 3074 3072 3071 3070 3069 3071 3070 3069 3070 3072 3074 3077 3080 3083 3088 3095 3100 3104 3107 3112 3113 3114 3117 3122 3124 3126 3130 3132 3133 3135 3136
3127 3124 3119 3115 3111 3107 3104 3100 3096 3093 3091 3088 3086 3084 3082 3080 3078 3077 3076 3075 3075 3075 3076 3077 3077 3077 3079 3080 3083 3086 3091 3097 3103 3106 3109 3111 3112 3115 3119 3122 3123 3125 3128 3130 3132 3133 3133
3129 3125 3121 3117 3113 3109 3105 3101 3098 3095 3092 3089 3087 3086 3085 3084 3084 3081 3081 3080 3079 3079 3081 3083 3082 3083 3083 3084 3088 3091 3096 3099 3103 3106 3109 3112 3113 3115 3118 3119 3122 3124 3127 3129 3130 3132 3131
3130 3127 3123 3118 3115 3111 3107 3104 3100 3096 3093 3090 3088 3087 3086 3084 3084 3083 3083 3082 3081 3081 3083 3088 3085 3085 3086 3089 3092 3095 3098 3102 3106 3108 3111 3112 3112 3115 3117 3120 3121 3124 3125 3127 3129 3129 3129
3131 3128 3124 3120 3116 3113 3109 3105 3101 3097 3094 3091 3088 3086 3086 3086 3084 3083 3082 3081 3082 3084 3087 3089 3089 3089 3090 3091 3094 3097 3101 3105 3107 3109 3111 3111 3113 3116 3118 3119 3120 3122 3124 3126 3127 3126 3127
3132 3129 3126 3123 3119 3115 3111 3107 3102 3097 3094 3091 3089 3087 3085 3085 3084 3083 3083 3083 3084 3083 3091 3093 3092 3092 3093 3095 3097 3098 3102 3105 3108 3111 3111 3112 3114 3116 3118 3119 3120 3122 3124 3125 3128 3127 3126
3134 3131 3128 3125 3122 3118 3113 3109 3105 3099 3095 3093 3091 3088 3087 3085 3083 3084 3084 3085 3084 3089 3088 3091 3093 3095 3095 3097 3099 3101 3104 3106 3108 3110 3111 3112 3116 3115 3116 3117 3118 3120 3123 3123 3128 3128 3122
3135 3132 3129 3126 3124 3121 3116 3111 3108 3103 3098 3095 3093 3090 3088 3086 3085 3084 3086 3085 3087 3089 3091 3092 3096 3097 3097 3098 3100 3102 3104 3106 3108 3110 3112 3112 3112 3113 3114 3115 3118 3119 3121 3123 3123 3122 3121
3134 3132 3130 3127 3124 3122 3119 3115 3110 3105 3101 3097 3095 3093 3090 3088 3086 3086 3087 3087 3090 3092 3094 3095 3096 3099 3099 3100 3102 3103 3105 3106 3108 3109 3110 3111 3112 3112 3113 3115 3116 3118 3120 3121 3122 3124 3121
3133 3132 3130 3128 3125 3122 3120 3117 3114 3109 3104 3099 3096 3094 3092 3090 3089 3088 3087 3088 3091 3094 3096 3098 3098 3099 3099 3100 3102 3103 3105 3107 3107 3108 3109 3111 3111 3113 3112 3113 3114 3116 3117 3118 3120 3120 3119
3133 3130 3129 3127 3126 3123 3120 3117 3114 3112 3108 3104 3100 3097 3095 3093 3093 3090 3090 3091 3093 3096 3097 3098 3098 3099 3100 3102 3103 3104 3105 3106 3107 3108 3108 3109 3110 3110 3111 3112 3112 3113 3113 3115 3116 3116 3115
3133 3131 3128 3127 3125 3124 3122 3119 3116 3113 3111 3108 3104 3101 3098 3096 3095 3094 3094 3095 3096 3097 3097 3098 3098 3099 3100 3102 3103 3103 3104 3105 3106 3106 3107 3108 3108 3109 3108 3110 3108 3108 3109 3111 3112 3112 3111
3132 3130 3127 3125 3124 3123 3122 3120 3117 3114 3112 3110 3108 3105 3103 3100 3099 3098 3098 3098 3097 3097 3098 3099 3100 3100 3100 3101 3101 3102 3102 3103 3104 3104 3105 3106 3106 3106 3106 3105 3106 3105 3106 3107 3107 3107 3103
3128 3127 3126 3124 3122 3121 3121 3119 3117 3115 3112 3111 3109 3108 3106 3104 3102 3100 3099 3098 3098 3098 3099 3099 3099 3100 3100 3100 3100 3100 3101 3101 3101 3102 3103 3104 3103 3103 3103 3103 3102 3102 3102 3102 3100 3099 3097
3125 3124 3124 3122 3121 3120 3118 3118 3116 3115 3113 3112 3109 3107 3106 3104 3104 3103 3101 3100 3099 3098 3098 3098 3098 3098 3099 3100 3101 3100 3100 3101 3101 3101 3100 3100 3099 3098 3097 3097 3096 3095 3094 3093 3092 3091 3090
3122 3121 3120 3119 3118 3117 3116 3115 3114 3112 3112 3110 3108 3106 3104 3103 3101 3101 3101 3101 3100 3099 3098 3098 3098 3097 3097 3097 3097 3097 3097 3097 3097 3097 3098 3098 3097 3095 3093 3092 3091 3087 3081 3082 3083 3083 3084
3117 3116 3115 3114 3113 3113 3112 3112 3111 3110 3109 3108 3106 3104 3103 3101 3100 3099 3098 3097 3097 3097 3097 3097 3097 3096 3097 3096 3096 3095 3094 3093 3092 3092 3092 3092 3093 3094 3091 3090 3087 3078 3077 3078 3077 3077 3078
3109 3110 3110 3110 3109 3108 3107 3107 3107 3106 3106 3104 3102 3102 3100 3099 3097 3096 3095 3095 3093 3093 3093 3094 3094 3094 3094 3094 3093 3092 3090 3090 3088 3087 3087 3088 3089 3090 3089 3086 3078 3074 3073 3074 3072 3072 3073
3103 3103 3104 3104 3104 3103 3103 3102 3102 3101 3099 3100 3099 3097 3096 3095 3094 3093 3092 3091 3090 3089 3090 3090 3090 3089 3089 3089 3089 3088 3088 3086 3084 3084 3084 3085 3086 3088 3087 3084 3076 3068 3069 3069 3068 3066 3066
3096 3096 3097 3097 3097 3096 3097 3096 3096 3095 3095 3093 3093 3093 3092 3090 3089 3088 3087 3087 3087 3086 3086 3085 3086 3086 3086 3084 3084 3084 3084 3084 3082 3079 3079 3080 3080 3079 3079 3078 3069 3063 3065 3066 3066 3065 3060
3087 3088 3089 3089 3090 3089 3089 3089 3090 3090 3089 3089 3087 3084 3085 3084 3083 3083 3081 3081 3081 3081 3081 3080 3082 3081 3081 3082 3082 3081 3079 3077 3077 3076 3075 3076 3076 3074 3075 3074 3067 3061 3061 3065 3062 3058 3058
3079 3079 3080 3081 3082 3082 3082 3082 3082 3082 3082 3081 3080 3079 3077 3076 3076 3075 3075 3075 3076 3076 3076 3076 3077 3075 3076 3077 3076 3075 3075 3073 3072 3072 3071 3073 3072 3071 3071 3064 3059 3059 3058 3058 3056 3054 3051
Wind_Speed
20 19 18 19 21 23 24 26 26 25 32 39 26 21 17 14 8 6 1 3 5 12 22 18 21 21 27 26 17 17 25 29 32 34 32 31 28 29 24 22 22 22 18 23 13 15 16
22 20 18 17 19 22 24 24 24 23 26 33 27 19 15 18 13 11 7 10 5 10 10 18 18 23 25 26 19 15 25 29 29 32 31 31 28 18 18 15 18 19 22 19 16 14 14
26 24 21 18 17 20 23 23 22 21 21 25 32 24 16 15 14 13 11 7 5 4 10 16 15 13 21 24 14 13 23 26 28 30 29 31 32 21 18 26 25 19 16 15 15 15 14
28 28 25 22 18 19 21 22 19 20 20 22 25 23 19 13 12 15 12 15 15 28 27 28 14 7 15 24 17 16 21 24 28 30 33 30 32 27 24 19 22 14 17 14 16 14 15
26 29 29 24 20 19 20 22 20 18 18 18 21 23 20 17 17 16 14 15 20 19 19 24 22 19 14 17 17 22 21 23 25 27 28 29 27 21 21 18 20 17 9 15 11 14 15
23 26 29 28 24 21 19 18 22 22 19 17 14 16 18 17 16 15 17 17 12 13 14 14 10 11 15 16 19 20 21 22 24 26 26 25 25 15 20 20 17 22 10 17 14 12 14
22 22 24 28 28 23 20 17 17 20 19 17 19 14 14 12 12 11 14 13 12 11 9 5 7 7 17 19 20 21 22 20 21 22 25 23 21 17 20 18 10 16 14 8 16 15 12
22 22 22 23 25 27 22 19 15 13 15 13 16 20 13 10 9 6 8 14 17 17 18 15 15 17 20 21 22 23 23 22 22 18 14 24 15 18 22 19 13 16 16 12 11 11 12
22 22 22 21 22 23 25 22 17 13 10 11 13 15 17 15 18 20 21 21 19 18 16 15 13 18 20 22 22 23 25 22 14 12 16 17 18 16 19 17 11 14 13 12 11 8 10
21 22 22 21 21 21 22 23 20 14 13 7 6 6 7 8 9 8 8 7 9 10 7 9 10 12 15 20 17 18 17 23 18 17 13 11 11 15 18 16 13 8 10 9 7 6 3
18 20 21 22 22 21 23 25 24 17 13 11 5 5 4 4 5 5 5 5 4 3 3 4 7 15 17 5 20 15 17 16 13 14 10 8 15 15 14 12 12 6 5 7 7 8 9
15 17 18 20 21 22 22 24 26 23 16 10 10 7 5 4 2 2 6 7 5 2 4 5 10 9 10 19 15 17 15 12 10 11 4 6 13 11 11 10 9 6 5 5 8 8 3
13 15 17 18 20 21 22 24 26 25 18 10 10 9 8 4 3 4 3 4 2 6 6 6 10 10 12 13 15 17 16 12 8 7 3 6 10 9 9 9 8 7 5 1 4 1 4
11 13 15 17 17 19 21 24 26 26 21 12 10 10 9 8 6 4 1 2 5 6 7 11 7 11 8 12 12 13 12 11 7 7 7 5 5 11 10 11 7 9 7 3 5 2 2
13 13 13 16 18 18 19 21 25 26 22 16 12 10 10 8 8 5 3 2 3 7 14 13 10 7 7 6 9 9 11 11 6 9 5 5 4 9 8 11 9 6 8 7 4 6 2
11 12 14 14 16 19 20 21 21 23 22 19 12 9 9 10 6 5 2 5 7 7 13 8 4 7 1 5 7 4 7 7 7 9 9 5 3 6 9 10 11 9 5 3 4 0 4
13 13 14 15 15 16 17 19 20 22 21 19 16 10 13 10 5 3 8 11 14 12 7 3 4 4 4 5 7 6 4 2 9 6 7 4 5 2 6 7 10 12 11 7 5 5 2
12 14 14 14 16 16 15 15 16 19 21 20 19 19 12 11 4 8 15 15 13 10 4 2 2 2 2 3 2 2 3 4 3 6 5 7 3 4 9 8 11 12 11 12 6 5 7
15 14 14 15 16 18 18 15 14 15 18 18 16 17 17 12 8 8 10 10 7 5 4 5 5 5 4 4 2 5 4 4 4 5 3 5 5 2 4 6 12 15 16 15 17 15 13
16 17 16 16 15 15 16 16 14 14 15 17 16 14 12 12 9 6 5 3 4 4 3 2 2 3 4 5 6 4 5 5 6 7 8 8 10 9 5 4 6 7 10 11 18 13 12
20 18 18 18 16 15 15 14 14 13 13 14 16 15 14 12 10 6 3 0 2 2 2 2 2 4 4 4 5 6 7 7 8 8 8 8 10 13 15 17 20 21 22 21 25 28 23
23 21 20 19 19 18 16 16 14 14 13 14 12 12 13 12 10 9 5 3 3 2 4 4 4 4 5 6 6 7 6 8 9 9 10 12 13 15 18 19 19 22 25 26 30 32 34
26 25 23 22 21 18 19 18 17 15 15 14 15 13 11 12 11 9 7 8 6 5 5 4 4 5 5 6 7 8 10 11 12 12 13 13 10 9 8 11 14 20 23 18 22 26 28
27 28 26 24 22 22 20 21 21 19 16 17 16 15 16 14 11 12 10 9 8 8 8 7 7 7 7 8 10 12 13 15 16 16 18 17 12 9 10 13 4 5 6 8 13 15 18
29 29 29 26 24 23 22 22 22 21 19 16 15 17 17 18 16 14 12 13 12 11 11 11 11 11 11 10 10 8 9 11 12 16 21 20 19 7 6 8 18 25 20 19 18 17 17
33 30 30 28 27 26 25 24 23 23 19 20 21 19 18 18 20 17 17 14 13 16 15 14 13 11 12 14 10 5 5 5 5 5 8 12 17 16 8 6 5 6 9 12 14 20 20
35 33 30 27 30 30 26 25 25 23 24 21 21 23 23 21 21 18 20 21 18 16 14 16 17 18 16 12 11 9 9 11 6 7 7 12 14 25 25 11 13 22 20 18 13 15 15
36 34 32 30 30 31 28 25 25 25 22 25 25 25 25 25 25 23 23 21 22 22 21 23 18 15 12 12 9 8 10 9 14 15 12 11 8 11 12 10 12 15 16 16 16 15 22
35 33 32 30 31 29 28 26 26 25 26 26 27 29 27 24 22 23 23 23 22 21 21 20 20 16 11 11 11 9 12 12 12 10 13 14 19 10 11 10 19 20 20 22 29 32 32
Wind_Direction
11 10 15 16 18 16 11 9 13 17 20 20 27 55 62 70 74 99 66 289 229 208 202 202 207 203 200 202 208 205 200 197 195 192 190 191 191 184 187 195 202 198 216 219 223 228 232
20 14 10 12 12 13 12 9 16 18 26 31 38 52 67 72 71 66 70 66 111 176 201 189 199 207 186 200 204 210 199 193 193 190 187 185 184 165 172 187 201 193 223 222 227 228 226
25 19 14 12 6 8 14 13 13 20 27 35 44 44 43 60 77 70 55 57 63 85 181 178 187 209 226 182 190 207 190 189 187 187 185 182 172 168 169 194 194 203 215 213 220 225 229
26 23 18 19 17 17 22 20 14 20 28 34 46 46 47 62 76 72 68 57 60 85 107 119 116 190 214 183 166 166 183 182 182 183 179 181 176 176 178 186 185 190 201 211 215 223 230
26 25 23 22 22 25 32 28 27 20 27 38 37 45 48 53 78 89 80 63 88 65 64 89 109 103 109 135 152 158 169 175 176 179 178 178 180 182 180 176 182 191 210 205 222 229 236
27 26 26 25 23 24 35 33 36 34 30 39 34 37 39 49 63 73 77 76 74 70 83 87 83 75 129 147 145 151 162 165 170 170 171 176 176 180 173 169 181 190 196 204 228 238 240
26 26 25 27 25 22 28 34 34 39 43 45 41 37 54 46 61 66 84 79 57 53 42 56 77 86 122 128 134 142 143 154 154 161 170 174 179 179 172 178 204 204 191 192 216 239 248
29 25 24 22 25 23 25 31 31 41 44 43 40 49 45 49 46 69 68 83 87 76 71 87 101 118 123 124 129 131 139 144 149 153 173 171 182 185 185 189 190 168 191 204 229 238 253
29 26 25 22 21 21 21 26 31 36 36 35 49 51 62 62 70 82 88 85 84 81 77 80 98 120 128 131 133 139 145 144 143 163 158 176 192 183 187 187 178 177 171 209 235 254 275
25 26 22 24 23 20 18 20 24 23 35 27 7 58 46 62 59 39 38 54 57 80 82 64 87 108 119 118 126 142 156 150 151 166 162 186 187 181 182 185 185 197 208 228 242 260 253
24 25 21 20 21 22 18 14 16 18 22 33 28 343 354 6 18 360 338 11 26 51 74 42 92 122 132 121 137 142 156 167 170 164 182 178 175 174 183 183 187 199 215 234 252 265 277
21 24 24 20 18 22 24 18 17 14 12 20 34 43 358 345 6 341 328 358 13 73 52 96 122 123 123 137 142 140 149 154 168 169 198 186 179 186 190 188 191 208 216 252 269 268 266
16 16 19 20 16 18 20 20 18 17 14 19 25 31 39 21 344 322 333 341 12 66 111 117 135 131 130 138 143 146 151 152 159 169 179 157 174 188 192 189 197 212 215 32 355 15 225
11 15 14 15 14 11 12 11 13 19 23 34 25 27 39 48 43 32 80 69 62 88 105 133 125 135 124 127 138 143 146 159 169 182 174 163 181 198 200 205 203 209 207 182 218 211 258
359 1 9 10 9 7 4 5 10 15 25 21 23 23 37 50 68 79 124 28 100 121 133 127 113 110 125 131 147 154 163 180 184 196 151 200 221 213 209 214 207 212 211 228 270 287 301
355 354 354 4 11 6 6 2 5 13 16 22 22 18 29 35 68 93 171 102 114 124 131 106 80 112 146 134 132 115 175 209 208 210 210 206 244 230 218 222 221 218 206 166 204 189 256
340 344 350 351 360 6 9 8 5 9 12 19 22 38 29 28 56 78 119 118 127 138 138 72 53 120 121 150 134 169 199 251 218 225 227 237 240 298 231 228 231 230 226 219 219 233 205
335 333 338 345 348 354 1 11 13 7 13 16 22 35 21 33 47 87 114 127 133 139 134 118 54 129 140 147 213 198 255 235 233 234 230 225 239 267 257 260 246 240 218 219 212 204 221
324 324 328 332 341 345 347 358 9 13 10 14 22 33 31 32 68 103 116 126 138 151 165 167 153 157 163 179 190 223 238 238 234 223 230 207 215 224 272 264 249 243 244 236 223 239 229
317 314 317 321 328 336 341 343 352 0 10 10 13 25 33 38 44 77 93 109 145 153 148 171 169 179 181 188 207 214 216 225 229 233 237 234 234 221 216 242 262 249 266 247 231 233 237
308 310 311 312 317 324 328 333 336 347 354 7 9 13 16 21 29 41 24 1 217 233 254 235 232 222 221 228 235 242 246 249 255 253 251 251 261 260 261 271 273 274 274 265 247 260 241
301 304 304 304 309 314 316 318 322 327 337 344 356 1 354 359 359 355 3 355 319 286 269 249 247 246 259 270 272 294 290 280 273 270 264 262 268 277 281 281 275 273 268 259 261 265 262
293 296 297 299 300 303 307 309 310 312 315 327 337 339 339 334 331 334 327 319 308 299 291 265 275 275 267 270 268 274 272 271 269 274 275 271 266 282 276 276 287 282 282 264 262 264 264
285 289 290 292 296 298 300 302 304 305 302 306 316 328 327 318 314 312 306 299 280 282 282 272 271 274 280 279 283 282 278 275 270 265 260 261 262 255 274 287 239 266 271 278 271 272 260
278 281 285 287 288 291 295 298 297 298 302 302 307 317 322 312 307 297 293 288 278 272 274 273 275 280 282 282 295 298 297 285 268 256 256 250 246 245 254 239 274 287 276 275 270 272 266
274 276 278 282 286 288 292 294 292 290 290 296 301 304 306 307 301 300 292 281 274 284 279 272 270 272 276 283 282 242 234 255 257 257 256 250 233 217 222 248 251 248 275 278 278 276 269
271 272 272 276 286 286 287 288 287 287 289 289 296 300 301 298 295 289 282 283 280 267 257 271 277 281 277 267 252 249 255 239 244 238 244 244 243 227 236 250 263 263 267 268 260 268 275
266 267 267 272 278 279 283 285 287 287 285 290 292 290 290 290 290 286 278 272 272 271 263 270 279 272 261 257 254 243 248 236 239 244 258 257 246 231 228 239 262 263 261 254 270 281 287
260 262 266 272 274 273 276 280 283 285 289 292 289 287 285 284 281 278 276 273 272 271 267 268 261 252 258 263 247 241 244 254 254 262 248 252 239 247 227 263 276 282 286 286 287 288 289